North Platte, NE

9:35 PM CDT on May 29, 2017 (GMT -0500)
North Platte Regional-Bird

Weather History for KLBF - March, 2013

Change the Weather History Date:

Saturday, March 16, 2013

  Actual Average Record
Temperature  
Mean Temperature 38 °F 38 °F  
Max Temperature 45 °F 53 °F 91 °F (2015)
Min Temperature 30 °F 24 °F -7 °F (1906)
Degree Days  
Heating Degree Days 27 27  
Month to date heating degree days 440 468  
Since 1 July heating degree days 5400 5496  
Cooling Degree Days 0 0  
Month to date cooling degree days 0 0  
Year to date cooling degree days 0 0  
Moisture  
Dew Point 25 °F    
Average Humidity 65    
Maximum Humidity 85    
Minimum Humidity 45    
Precipitation  
Precipitation 0.00 in 0.03 in 0.67 in (1987)
Month to date precipitation 0.08 0.47  
Year to date precipitation 1.36 1.31  
Snow  
Snow 0.00 in 0.10 in 4.10 in (1983)
Month to date snowfall 1.6 2.4  
Since 1 July snowfall 21.5 23.3  
Snow Depth 0.00 in    
Sea Level Pressure  
Sea Level Pressure 30.04 in    
Wind  
Wind Speed 10 mph (NE)    
Max Wind Speed 20 mph    
Max Gust Speed 24 mph    
Visibility 10 miles    
Events      
T = Trace of Precipitation, MM = Missing Value Source: NWS Daily Summary

Daily Weather History Graph

Daily Weather History Graph

Search for Another Location

Airport or City:

Trip Planner

Search our weather history database for the weather conditions in past years. The results will help you decide how hot, cold, wet, or windy it might be!

Date:

Astronomy

Mar. 16, 2013 Rise Set
Actual Time 7:52 AM CDT 7:50 PM CDT
Civil Twilight 7:24 AM CDT 8:18 PM CDT
Nautical Twilight 6:52 AM CDT 8:50 PM CDT
Astronomical Twilight 6:20 AM CDT 9:22 PM CDT
Moon 10:20 AM CDT (3/16) 12:08 AM CDT (3/16)
Length of Visible Light 12h 53m
Length of Day
11h 58m
Waxing Crescent, 23% of the Moon is Illuminated
Mar 16
Waxing Crescent
Mar 19
First Quarter
Mar 27
Full
Apr 2
Last Quarter
Apr 10
New

Hourly Weather History & Observations

Time (CDT) Temp. Windchill Dew Point Humidity Pressure Visibility Wind Dir Wind Speed Gust Speed Precip Events Conditions
12:53 AM 46.0 °F 41.0 °F 32.0 °F 58% 29.90 in 10.0 mi NE 10.4 mph - N/A   Scattered Clouds
1:53 AM 43.0 °F 39.5 °F 30.9 °F 62% 29.90 in 10.0 mi NE 5.8 mph - N/A   Clear
2:53 AM 41.0 °F 35.8 °F 30.0 °F 65% 29.92 in 10.0 mi NNE 8.1 mph - N/A   Clear
3:53 AM 39.9 °F 32.1 °F 30.0 °F 68% 29.95 in 10.0 mi NE 13.8 mph 19.6 mph N/A   Clear
4:53 AM 34.0 °F 27.2 °F 28.9 °F 82% 29.99 in 10.0 mi NE 8.1 mph - N/A   Clear
5:50 AM 32.0 °F 24.8 °F 26.6 °F 80% 30.03 in 10.0 mi NE 8.1 mph - N/A   Mostly Cloudy
5:53 AM 32.0 °F 25.6 °F 27.0 °F 82% 30.02 in 10.0 mi NNE 6.9 mph - N/A   Mostly Cloudy
6:53 AM 30.9 °F 22.2 °F 26.1 °F 82% 30.05 in 10.0 mi North 10.4 mph - N/A   Overcast
7:53 AM 30.9 °F 25.2 °F 25.0 °F 79% 30.06 in 10.0 mi North 5.8 mph - N/A   Overcast
8:53 AM 30.9 °F 21.2 °F 25.0 °F 79% 30.08 in 10.0 mi North 12.7 mph - N/A   Overcast
9:53 AM 32.0 °F 23.0 °F 25.0 °F 75% 30.09 in 10.0 mi NNE 11.5 mph - N/A   Overcast
10:53 AM 34.0 °F 25.0 °F 25.0 °F 70% 30.10 in 10.0 mi NE 12.7 mph 19.6 mph N/A   Mostly Cloudy
11:01 AM 35.6 °F 27.5 °F 24.8 °F 65% 30.07 in 10.0 mi NE 11.5 mph - N/A   Mostly Cloudy
11:53 AM 37.0 °F 30.4 °F 24.1 °F 59% 30.09 in 10.0 mi NE 9.2 mph 18.4 mph N/A   Clear
12:53 PM 39.0 °F 32.8 °F 23.0 °F 53% 30.08 in 10.0 mi NNE 9.2 mph - N/A   Clear
1:53 PM 41.0 °F 35.8 °F 23.0 °F 49% 30.07 in 10.0 mi ENE 8.1 mph - N/A   Clear
2:53 PM 41.0 °F 38.0 °F 21.9 °F 47% 30.06 in 10.0 mi NNE 4.6 mph 17.3 mph N/A   Overcast
3:53 PM 39.0 °F 34.8 °F 21.9 °F 50% 30.06 in 10.0 mi NE 5.8 mph - N/A   Overcast
4:53 PM 37.9 °F 30.5 °F 21.9 °F 53% 30.06 in 10.0 mi ENE 11.5 mph - N/A   Overcast
5:53 PM 37.0 °F 29.8 °F 21.9 °F 54% 30.05 in 10.0 mi East 10.4 mph - N/A   Overcast
6:53 PM 37.0 °F 29.8 °F 21.9 °F 54% 30.06 in 10.0 mi East 10.4 mph - N/A   Overcast
7:53 PM 35.1 °F 26.4 °F 21.0 °F 57% 30.04 in 10.0 mi ESE 12.7 mph - N/A   Mostly Cloudy
8:53 PM 34.0 °F 23.8 °F 19.9 °F 56% 30.04 in 10.0 mi East 16.1 mph - N/A   Mostly Cloudy
9:53 PM 32.0 °F 21.2 °F 19.9 °F 61% 30.06 in 10.0 mi East 16.1 mph - N/A   Mostly Cloudy
10:53 PM 30.0 °F 19.5 °F 19.0 °F 64% 30.08 in 10.0 mi ESE 13.8 mph - N/A   Partly Cloudy
11:53 PM 32.0 °F 21.6 °F 18.0 °F 56% 30.05 in 10.0 mi SE 15.0 mph 19.6 mph N/A   Overcast